GW1087 Weather Reports


time (UTC)temp
C
wind
direction
speed
KPH
gust
KPH
rain 1hr
cm
rain 24hr
cm
rain mn
cm
humidity
%
barometer
mb
20260505071517 17 158 0.0 3.2 0.00 0.00 0.00 78 1006.5
20260505070036 17 127 0.0 6.4 0.00 0.00 0.00 78 1006.8
20260505064541 17 224 0.0 8.0 0.00 0.00 0.00 78 1007.0
20260505063051 17 139 0.0 4.8 0.00 0.00 0.00 79 1007.2
20260505061627 17 122 0.0 4.8 0.00 0.00 0.00 78 1007.5
20260505060015 17 156 0.0 3.2 0.00 0.00 0.00 77 1007.3
20260505054515 17 151 0.0 3.2 0.00 0.00 0.00 78 1007.6
20260505053025 17 226 0.0 0.0 0.00 0.00 0.00 78 1007.8
20260505051605 17 134 0.0 1.6 0.00 0.00 0.00 77 1008.2
20260505041556 18 151 0.0 0.0 0.00 0.00 0.00 76 1008.4
20260505040005 18 151 0.0 0.0 0.00 0.00 0.00 74 1008.5
20260505034504 18 207 0.0 3.2 0.00 0.00 0.00 74 1008.7
20260505033025 18 157 0.0 4.8 0.00 0.00 0.00 74 1008.8
20260505031524 18 134 0.0 0.0 0.00 0.00 0.00 73 1008.8
20260505030035 19 148 0.0 0.0 0.00 0.00 0.00 72 1008.5
20260505024552 19 158 0.0 1.6 0.00 0.00 0.00 71 1008.4
20260505023057 20 195 0.0 4.8 0.00 0.00 0.00 70 1008.2
20260505021522 20 162 0.0 1.6 0.00 0.00 0.00 70 1007.9
20260505020030 20 159 0.0 8.0 0.00 0.00 0.00 68 1008.0
20260505014540 20 178 0.0 6.4 0.00 0.00 0.00 68 1007.8
20260505013052 21 134 0.0 4.8 0.00 0.00 0.00 66 1007.6
20260505011508 21 219 1.6 12.9 0.00 0.00 0.00 64 1007.3
20260505010029 22 162 0.0 9.7 0.00 0.00 0.00 63 1007.0
20260505004537 22 216 4.8 11.3 0.00 0.00 0.00 62 1006.5
20260505003053 22 143 0.0 9.7 0.00 0.00 0.00 62 1006.6
20260505001603 22 158 0.0 12.9 0.00 0.00 0.00 61 1006.6
20260505000006 23 163 3.2 12.9 0.00 0.00 0.00 60 1006.7
20260504234521 23 155 1.6 11.3 0.00 0.00 0.00 58 1006.9
20260504233028 24 162 3.2 14.5 0.00 0.00 0.00 57 1006.8
20260504231547 24 214 1.6 14.5 0.00 0.00 0.00 57 1007.0
20260504230058 25 146 6.4 17.7 0.00 0.00 0.00 54 1007.2
20260504224511 26 143 4.8 19.3 0.00 0.00 0.00 53 1007.1
20260504223010 26 190 0.0 19.3 0.00 0.00 0.00 54 1007.0
20260504221511 26 255 3.2 12.9 0.00 0.00 0.00 52 1007.2
20260504220031 27 207 3.2 14.5 0.00 0.00 0.00 51 1007.1
20260504214531 27 346 1.6 12.9 0.00 0.00 0.00 52 1007.2
20260504213043 27 176 4.8 14.5 0.00 0.00 0.00 51 1007.3
20260504211549 27 198 0.0 14.5 0.00 0.00 0.00 50 1007.3
20260504210006 27 163 0.0 12.9 0.00 0.00 0.00 50 1007.6
20260504204526 27 124 1.6 16.1 0.00 0.00 0.00 51 1007.8
20260504203100 27 58 0.0 11.3 0.00 0.00 0.00 52 1007.8
20260504201555 27 236 4.8 22.5 0.00 0.00 0.00 50 1008.0
20260504200004 27 126 3.2 14.5 0.00 0.00 0.00 49 1008.2
20260504194524 27 117 4.8 17.7 0.00 0.00 0.00 52 1008.3
20260504193033 27 208 4.8 20.9 0.00 0.00 0.00 52 1008.5
20260504191551 26 226 6.4 19.3 0.00 0.00 0.00 51 1008.7
20260504190000 26 187 3.2 17.7 0.00 0.00 0.00 53 1008.6
20260504184519 26 179 3.2 17.7 0.00 0.00 0.00 53 1008.8
20260504183004 26 184 6.4 16.1 0.00 0.00 0.00 51 1008.7
20260504181522 26 63 4.8 17.7 0.00 0.00 0.00 52 1009.0
20260504180033 26 19 6.4 22.5 0.00 0.00 0.00 51 1009.2
20260504174543 26 217 6.4 22.5 0.00 0.00 0.00 50 1009.4
20260504173041 26 148 4.8 20.9 0.00 0.00 0.00 51 1009.5
20260504171553 25 73 4.8 27.4 0.00 0.00 0.00 55 1009.6
20260504081556 16 65 0.0 1.6 0.00 0.00 0.00 74 1012.7